Location: ?ejeti?ky
(50.4060°N, 14.9016°E)
Time: 07:44:55
(UTC+00:00)

N. Korean satellite - Pass Details

Date: 03 December 2021
Orbit: 446 x 491 km, 97.3° (Epoch: 18 January)

Event Time Altitude Azimuth Distance (km) Brightness Sun altitude
Rises 05:11:17 0° 3° (N) 2,478 10.0 -13.6°
Reaches altitude 10° 05:13:32 10° 351° (N) 1,594 8.9 -13.3°
Maximum altitude 05:16:26 26° 293° (WNW) 917 7.3 -12.9°
Drops below altitude 10° 05:19:18 10° 234° (SW) 1,575 8.8 -12.4°
Sets 05:21:35 0° 222° (SW) 2,470 9.9 -12.1°
